����������;��������(kVARh)
2016-02-22 00:00;0,3
2016-02-22 00:15;0,05
2016-02-22 00:30;0
2016-02-22 00:45;0
2016-02-22 01:00;1,35
2016-02-22 01:15;8,4
2016-02-22 01:30;5,35
2016-02-22 01:45;1,85
2016-02-22 02:00;0,25
2016-02-22 02:15;0,3
2016-02-22 02:30;0,65
2016-02-22 02:45;0,65
2016-02-22 03:00;1,15
2016-02-22 03:15;1
2016-02-22 03:30;0,3
2016-02-22 03:45;0,85
2016-02-22 04:00;1,65
2016-02-22 04:15;0,25
2016-02-22 04:30;0,6
2016-02-22 04:45;0,05
2016-02-22 05:00;0,7
2016-02-22 05:15;0,45
2016-02-22 05:30;0,1
2016-02-22 05:45;0,3
2016-02-22 06:00;0,35
2016-02-22 06:15;0,15
2016-02-22 06:30;0,2
2016-02-22 06:45;0,3
2016-02-22 07:00;0,4
2016-02-22 07:15;0,6
2016-02-22 07:30;0,25
2016-02-22 07:45;1,7
2016-02-22 08:00;11,15
2016-02-22 08:15;16,15
2016-02-22 08:30;21,55
2016-02-22 08:45;14
2016-02-22 09:00;17,6
2016-02-22 09:15;12,05
2016-02-22 09:30;23,6
2016-02-22 09:45;21,6
2016-02-22 10:00;25
2016-02-22 10:15;23
2016-02-22 10:30;26,45
2016-02-22 10:45;30,05
2016-02-22 11:00;29,95
2016-02-22 11:15;23,75
2016-02-22 11:30;28,1
2016-02-22 11:45;32,6
2016-02-22 12:00;43,15
2016-02-22 12:15;37,05
2016-02-22 12:30;32,6
2016-02-22 12:45;25,95
2016-02-22 13:00;30,45
2016-02-22 13:15;30
2016-02-22 13:30;32,9
2016-02-22 13:45;27,75
2016-02-22 14:00;34,55
2016-02-22 14:15;41,45
2016-02-22 14:30;38,85
2016-02-22 14:45;40,8
2016-02-22 15:00;39,45
2016-02-22 15:15;37,5
2016-02-22 15:30;29,1
2016-02-22 15:45;25,2
2016-02-22 16:00;24
2016-02-22 16:15;19,3
2016-02-22 16:30;15,6
2016-02-22 16:45;20,65
2016-02-22 17:00;21,15
2016-02-22 17:15;21,2
2016-02-22 17:30;21,15
2016-02-22 17:45;22,35
2016-02-22 18:00;16,15
2016-02-22 18:15;15,15
2016-02-22 18:30;14,65
2016-02-22 18:45;19,2
2016-02-22 19:00;17,8
2016-02-22 19:15;18,9
2016-02-22 19:30;14,25
2016-02-22 19:45;11,9
2016-02-22 20:00;8,25
2016-02-22 20:15;6,7
2016-02-22 20:30;7,05
2016-02-22 20:45;5,05
2016-02-22 21:00;3,15
2016-02-22 21:15;5,1
2016-02-22 21:30;8,5
2016-02-22 21:45;8,9
2016-02-22 22:00;5,5
2016-02-22 22:15;2,65
2016-02-22 22:30;1,3
2016-02-22 22:45;0,55
2016-02-22 23:00;0
2016-02-22 23:15;0
2016-02-22 23:30;0
2016-02-22 23:45;0
2016-02-23 00:00;0
2016-02-23 00:15;0
2016-02-23 00:30;0
2016-02-23 00:45;0
2016-02-23 01:00;0
2016-02-23 01:15;0
2016-02-23 01:30;3,4
2016-02-23 01:45;6,25
2016-02-23 02:00;0,85
2016-02-23 02:15;1
2016-02-23 02:30;0,25
2016-02-23 02:45;0,85
2016-02-23 03:00;0,45
2016-02-23 03:15;1,05
2016-02-23 03:30;1
2016-02-23 03:45;0,35
2016-02-23 04:00;0,3
2016-02-23 04:15;0,15
2016-02-23 04:30;0,15
2016-02-23 04:45;0,6
2016-02-23 05:00;0,45
2016-02-23 05:15;0,45
2016-02-23 05:30;0,15
2016-02-23 05:45;0,9
2016-02-23 06:00;1,45
2016-02-23 06:15;0,55
2016-02-23 06:30;0,9
2016-02-23 06:45;0,05
2016-02-23 07:00;0,1
2016-02-23 07:15;0,1
2016-02-23 07:30;0,35
2016-02-23 07:45;0,25
2016-02-23 08:00;2,45
2016-02-23 08:15;5,75
2016-02-23 08:30;10,45
2016-02-23 08:45;12,15
2016-02-23 09:00;13,75
2016-02-23 09:15;12,7
2016-02-23 09:30;19,65
2016-02-23 09:45;30,85
2016-02-23 10:00;32,1
2016-02-23 10:15;34,5
2016-02-23 10:30;35,75
2016-02-23 10:45;37,85
2016-02-23 11:00;44,75
2016-02-23 11:15;42,65
2016-02-23 11:30;31,2
2016-02-23 11:45;32,3
2016-02-23 12:00;34,4
2016-02-23 12:15;34,9
2016-02-23 12:30;29,6
2016-02-23 12:45;33,05
2016-02-23 13:00;28,9
2016-02-23 13:15;32,45
2016-02-23 13:30;30,35
2016-02-23 13:45;33,35
2016-02-23 14:00;35,35
2016-02-23 14:15;34,4
2016-02-23 14:30;34,35
2016-02-23 14:45;31
2016-02-23 15:00;38,9
2016-02-23 15:15;37,6
2016-02-23 15:30;37,6
2016-02-23 15:45;36
2016-02-23 16:00;31,05
2016-02-23 16:15;31,25
2016-02-23 16:30;31,5
2016-02-23 16:45;38,5
2016-02-23 17:00;32,55
2016-02-23 17:15;31,1
2016-02-23 17:30;27,25
2016-02-23 17:45;25,1
2016-02-23 18:00;23,3
2016-02-23 18:15;23,4
2016-02-23 18:30;16,8
2016-02-23 18:45;12,6
2016-02-23 19:00;13,6
2016-02-23 19:15;16,8
2016-02-23 19:30;13,5
2016-02-23 19:45;13,55
2016-02-23 20:00;14,5
2016-02-23 20:15;8,95
2016-02-23 20:30;9,6
2016-02-23 20:45;7,95
2016-02-23 21:00;6,9
2016-02-23 21:15;6,55
2016-02-23 21:30;5,95
2016-02-23 21:45;7,1
2016-02-23 22:00;6,55
2016-02-23 22:15;4,65
2016-02-23 22:30;3,3
2016-02-23 22:45;3,65
2016-02-23 23:00;2,65
2016-02-23 23:15;1,55
2016-02-23 23:30;0,45
2016-02-23 23:45;0,45
2016-02-24 00:00;0,6
2016-02-24 00:15;0,7
2016-02-24 00:30;0,7
2016-02-24 00:45;0,05
2016-02-24 01:00;0,15
2016-02-24 01:15;0,25
2016-02-24 01:30;0,05
2016-02-24 01:45;0,8
2016-02-24 02:00;0,8
2016-02-24 02:15;13,4
2016-02-24 02:30;8,15
2016-02-24 02:45;4,25
2016-02-24 03:00;4,2
2016-02-24 03:15;2,95
2016-02-24 03:30;0,65
2016-02-24 03:45;0,55
2016-02-24 04:00;1,1
2016-02-24 04:15;1,35
2016-02-24 04:30;3,5
2016-02-24 04:45;2,1
2016-02-24 05:00;2,35
2016-02-24 05:15;2,1
2016-02-24 05:30;2,25
2016-02-24 05:45;0,5
2016-02-24 06:00;0,75
2016-02-24 06:15;0,9
2016-02-24 06:30;2,55
2016-02-24 06:45;6,65
2016-02-24 07:00;7,35
2016-02-24 07:15;5,55
2016-02-24 07:30;15,8
2016-02-24 07:45;17,55
2016-02-24 08:00;24,8
2016-02-24 08:15;10
2016-02-24 08:30;14,7
2016-02-24 08:45;12,85
2016-02-24 09:00;15,05
2016-02-24 09:15;19,4
2016-02-24 09:30;21,45
2016-02-24 09:45;25,75
2016-02-24 10:00;27,3
2016-02-24 10:15;27,7
2016-02-24 10:30;28,1
2016-02-24 10:45;27,95
2016-02-24 11:00;28,5
2016-02-24 11:15;32,95
2016-02-24 11:30;36,2
2016-02-24 11:45;38,5
2016-02-24 12:00;36,35
2016-02-24 12:15;32,25
2016-02-24 12:30;36,55
2016-02-24 12:45;46,3
2016-02-24 13:00;48,55
2016-02-24 13:15;46,2
2016-02-24 13:30;46,2
2016-02-24 13:45;41,6
2016-02-24 14:00;37,05
2016-02-24 14:15;31,95
2016-02-24 14:30;36,1
2016-02-24 14:45;35,8
2016-02-24 15:00;34,9
2016-02-24 15:15;35,2
2016-02-24 15:30;30,7
2016-02-24 15:45;31
2016-02-24 16:00;28,3
2016-02-24 16:15;28,4
2016-02-24 16:30;22,8
2016-02-24 16:45;21,15
2016-02-24 17:00;18,4
2016-02-24 17:15;20,65
2016-02-24 17:30;17,95
2016-02-24 17:45;20,6
2016-02-24 18:00;20,05
2016-02-24 18:15;18,5
2016-02-24 18:30;17,05
2016-02-24 18:45;21,05
2016-02-24 19:00;20,85
2016-02-24 19:15;18,35
2016-02-24 19:30;19,25
2016-02-24 19:45;20,35
2016-02-24 20:00;16,8
2016-02-24 20:15;14,5
2016-02-24 20:30;15,55
2016-02-24 20:45;13,9
2016-02-24 21:00;6,05
2016-02-24 21:15;3
2016-02-24 21:30;4,25
2016-02-24 21:45;4,95
2016-02-24 22:00;2,05
2016-02-24 22:15;4,05
2016-02-24 22:30;0,8
2016-02-24 22:45;1,7
2016-02-24 23:00;0,4
2016-02-24 23:15;0
2016-02-24 23:30;0
2016-02-24 23:45;0,1
2016-02-25 00:00;0,2
2016-02-25 00:15;0,2
2016-02-25 00:30;0
2016-02-25 00:45;0,2
2016-02-25 01:00;0,2
2016-02-25 01:15;0
2016-02-25 01:30;0
2016-02-25 01:45;0
2016-02-25 02:00;0
2016-02-25 02:15;0
2016-02-25 02:30;8,1
2016-02-25 02:45;7,65
2016-02-25 03:00;2,95
2016-02-25 03:15;1
2016-02-25 03:30;0,75
2016-02-25 03:45;0,95
2016-02-25 04:00;0,6
2016-02-25 04:15;0,7
2016-02-25 04:30;0,55
2016-02-25 04:45;0,45
2016-02-25 05:00;0,35
2016-02-25 05:15;0,4
2016-02-25 05:30;0,75
2016-02-25 05:45;0,5
2016-02-25 06:00;0,7
2016-02-25 06:15;0,95
2016-02-25 06:30;0,5
2016-02-25 06:45;3,35
2016-02-25 07:00;8,3
2016-02-25 07:15;8,8
2016-02-25 07:30;7,3
2016-02-25 07:45;15,55
2016-02-25 08:00;21,4
2016-02-25 08:15;19,75
2016-02-25 08:30;19,95
2016-02-25 08:45;21,75
2016-02-25 09:00;31,25
2016-02-25 09:15;30,6
2016-02-25 09:30;36,3
2016-02-25 09:45;33,4
2016-02-25 10:00;39,8
2016-02-25 10:15;31,6
2016-02-25 10:30;38,65
2016-02-25 10:45;37,85
2016-02-25 11:00;37
2016-02-25 11:15;31,95
2016-02-25 11:30;37
2016-02-25 11:45;34,15
2016-02-25 12:00;37,2
2016-02-25 12:15;35,15
2016-02-25 12:30;39,8
2016-02-25 12:45;36,25
2016-02-25 13:00;40,05
2016-02-25 13:15;32,3
2016-02-25 13:30;37,3
2016-02-25 13:45;36,25
2016-02-25 14:00;30,5
2016-02-25 14:15;34,85
2016-02-25 14:30;29,9
2016-02-25 14:45;40,4
2016-02-25 15:00;43,7
2016-02-25 15:15;42,1
2016-02-25 15:30;32,95
2016-02-25 15:45;37
2016-02-25 16:00;30,85
2016-02-25 16:15;30,25
2016-02-25 16:30;26
2016-02-25 16:45;27,95
2016-02-25 17:00;26,8
2016-02-25 17:15;25,8
2016-02-25 17:30;28,5
2016-02-25 17:45;24,1
2016-02-25 18:00;23,55
2016-02-25 18:15;27,85
2016-02-25 18:30;31,1
2016-02-25 18:45;23,9
2016-02-25 19:00;23,4
2016-02-25 19:15;16,7
2016-02-25 19:30;17,95
2016-02-25 19:45;18
2016-02-25 20:00;15,75
2016-02-25 20:15;18,5
2016-02-25 20:30;14
2016-02-25 20:45;15
2016-02-25 21:00;17,55
2016-02-25 21:15;13,95
2016-02-25 21:30;11,6
2016-02-25 21:45;17,5
2016-02-25 22:00;17,5
2016-02-25 22:15;10,6
2016-02-25 22:30;11,05
2016-02-25 22:45;11,85
2016-02-25 23:00;8,65
2016-02-25 23:15;11,4
2016-02-25 23:30;9,5
2016-02-25 23:45;6,2
2016-02-26 00:00;8,15
2016-02-26 00:15;9,6
2016-02-26 00:30;5,3
2016-02-26 00:45;2,1
2016-02-26 01:00;0,9
2016-02-26 01:15;0,8
2016-02-26 01:30;0,8
2016-02-26 01:45;0
2016-02-26 02:00;0
2016-02-26 02:15;0
2016-02-26 02:30;0
2016-02-26 02:45;0
2016-02-26 03:00;0,1
2016-02-26 03:15;10,8
2016-02-26 03:30;7,6
2016-02-26 03:45;2,55
2016-02-26 04:00;1,45
2016-02-26 04:15;0,2
2016-02-26 04:30;0,25
2016-02-26 04:45;0,6
2016-02-26 05:00;0,3
2016-02-26 05:15;0,65
2016-02-26 05:30;0,85
2016-02-26 05:45;0,55
2016-02-26 06:00;0,8
2016-02-26 06:15;0,45
2016-02-26 06:30;0,65
2016-02-26 06:45;0,55
2016-02-26 07:00;1,35
2016-02-26 07:15;2,8
2016-02-26 07:30;9,65
2016-02-26 07:45;14,55
2016-02-26 08:00;22,75
2016-02-26 08:15;21,4
2016-02-26 08:30;27
2016-02-26 08:45;31,15
2016-02-26 09:00;31,2
2016-02-26 09:15;31,3
2016-02-26 09:30;28,6
2016-02-26 09:45;33,5
2016-02-26 10:00;32,25
2016-02-26 10:15;26,25
2016-02-26 10:30;29,55
2016-02-26 10:45;38,95
2016-02-26 11:00;48,7
2016-02-26 11:15;44,55
2016-02-26 11:30;47,15
2016-02-26 11:45;52,95
2016-02-26 12:00;49,15
2016-02-26 12:15;53,45
2016-02-26 12:30;53,25
2016-02-26 12:45;49,55
2016-02-26 13:00;47,95
2016-02-26 13:15;44,3
2016-02-26 13:30;39,8
2016-02-26 13:45;43,4
2016-02-26 14:00;42,5
2016-02-26 14:15;44,6
2016-02-26 14:30;42,4
2016-02-26 14:45;42,7
2016-02-26 15:00;41,35
2016-02-26 15:15;38,15
2016-02-26 15:30;32,55
2016-02-26 15:45;35,75
2016-02-26 16:00;32,1
2016-02-26 16:15;33,9
2016-02-26 16:30;32,85
2016-02-26 16:45;34,4
2016-02-26 17:00;30,35
2016-02-26 17:15;30,6
2016-02-26 17:30;31,7
2016-02-26 17:45;26,9
2016-02-26 18:00;25,4
2016-02-26 18:15;25,35
2016-02-26 18:30;28,5
2016-02-26 18:45;26,4
2016-02-26 19:00;23,5
2016-02-26 19:15;18,85
2016-02-26 19:30;18
2016-02-26 19:45;16,6
2016-02-26 20:00;16
2016-02-26 20:15;16,1
2016-02-26 20:30;16,55
2016-02-26 20:45;17,3
2016-02-26 21:00;16,15
2016-02-26 21:15;17,1
2016-02-26 21:30;18,9
2016-02-26 21:45;13,65
2016-02-26 22:00;15,15
2016-02-26 22:15;1,5
2016-02-26 22:30;0,95
2016-02-26 22:45;1,15
2016-02-26 23:00;1,15
2016-02-26 23:15;1,4
2016-02-26 23:30;1,45
2016-02-26 23:45;1,75
2016-02-27 00:00;0,15
2016-02-27 00:15;1
2016-02-27 00:30;0,4
2016-02-27 00:45;1,3
2016-02-27 01:00;2,1
2016-02-27 01:15;2,3
2016-02-27 01:30;0,85
2016-02-27 01:45;0,15
2016-02-27 02:00;0,75
2016-02-27 02:15;0,15
2016-02-27 02:30;0
2016-02-27 02:45;0
2016-02-27 03:00;0,4
2016-02-27 03:15;0
2016-02-27 03:30;0,25
2016-02-27 03:45;0,15
2016-02-27 04:00;0,4
2016-02-27 04:15;0,1
2016-02-27 04:30;0
2016-02-27 04:45;0,1
2016-02-27 05:00;0
2016-02-27 05:15;0,05
2016-02-27 05:30;0,05
2016-02-27 05:45;0
2016-02-27 06:00;0,2
2016-02-27 06:15;0
2016-02-27 06:30;0
2016-02-27 06:45;0,3
2016-02-27 07:00;0,3
2016-02-27 07:15;0,15
2016-02-27 07:30;0,1
2016-02-27 07:45;0,35
2016-02-27 08:00;0,35
2016-02-27 08:15;0
2016-02-27 08:30;3
2016-02-27 08:45;5,8
2016-02-27 09:00;5,35
2016-02-27 09:15;3,7
2016-02-27 09:30;1,5
2016-02-27 09:45;0,75
2016-02-27 10:00;0,35
2016-02-27 10:15;0,2
2016-02-27 10:30;1,15
2016-02-27 10:45;0,95
2016-02-27 11:00;1,75
2016-02-27 11:15;2,2
2016-02-27 11:30;1,9
2016-02-27 11:45;2,45
2016-02-27 12:00;2,7
2016-02-27 12:15;1,3
2016-02-27 12:30;1,25
2016-02-27 12:45;1,55
2016-02-27 13:00;0,55
2016-02-27 13:15;0,15
2016-02-27 13:30;0,1
2016-02-27 13:45;0,05
2016-02-27 14:00;0,05
2016-02-27 14:15;0,4
2016-02-27 14:30;1,15
2016-02-27 14:45;1,35
2016-02-27 15:00;0,75
2016-02-27 15:15;1,8
2016-02-27 15:30;1,25
2016-02-27 15:45;1,85
2016-02-27 16:00;1,7
2016-02-27 16:15;0,45
2016-02-27 16:30;0,7
2016-02-27 16:45;1
2016-02-27 17:00;0,55
2016-02-27 17:15;0,25
2016-02-27 17:30;0,75
2016-02-27 17:45;0,65
2016-02-27 18:00;1
2016-02-27 18:15;1,3
2016-02-27 18:30;1,9
2016-02-27 18:45;0,7
2016-02-27 19:00;0,55
2016-02-27 19:15;0,25
2016-02-27 19:30;0,45
2016-02-27 19:45;0,8
2016-02-27 20:00;0,7
2016-02-27 20:15;1,25
2016-02-27 20:30;1,9
2016-02-27 20:45;2,8
2016-02-27 21:00;2,7
2016-02-27 21:15;2,3
2016-02-27 21:30;2,9
2016-02-27 21:45;2,6
2016-02-27 22:00;2,45
2016-02-27 22:15;0,95
2016-02-27 22:30;1,15
2016-02-27 22:45;1,3
2016-02-27 23:00;0,15
2016-02-27 23:15;0
2016-02-27 23:30;0
2016-02-27 23:45;0
2016-02-28 00:00;0,1
2016-02-28 00:15;0
2016-02-28 00:30;0
2016-02-28 00:45;0
2016-02-28 01:00;0
2016-02-28 01:15;0
2016-02-28 01:30;0
2016-02-28 01:45;0
2016-02-28 02:00;0,15
2016-02-28 02:15;0
2016-02-28 02:30;0
2016-02-28 02:45;0
2016-02-28 03:00;0
2016-02-28 03:15;0,05
2016-02-28 03:30;0
2016-02-28 03:45;0,25
2016-02-28 04:00;0
2016-02-28 04:15;0
2016-02-28 04:30;0
2016-02-28 04:45;0
2016-02-28 05:00;0
2016-02-28 05:15;0
2016-02-28 05:30;0
2016-02-28 05:45;0
2016-02-28 06:00;0
2016-02-28 06:15;0,05
2016-02-28 06:30;0
2016-02-28 06:45;0
2016-02-28 07:00;0
2016-02-28 07:15;0,15
2016-02-28 07:30;0,1
2016-02-28 07:45;0,3
2016-02-28 08:00;0
2016-02-28 08:15;0,2
2016-02-28 08:30;0,45
2016-02-28 08:45;0,2
2016-02-28 09:00;0,15
2016-02-28 09:15;0,3
2016-02-28 09:30;0,1
2016-02-28 09:45;0,15
2016-02-28 10:00;0
2016-02-28 10:15;0
2016-02-28 10:30;0
2016-02-28 10:45;0
2016-02-28 11:00;0,2
2016-02-28 11:15;0
2016-02-28 11:30;0
2016-02-28 11:45;0,1
2016-02-28 12:00;0
2016-02-28 12:15;0,7
2016-02-28 12:30;0,75
2016-02-28 12:45;0,7
2016-02-28 13:00;1,85
2016-02-28 13:15;4,8
2016-02-28 13:30;1,5
2016-02-28 13:45;1,15
2016-02-28 14:00;1,2
2016-02-28 14:15;3,25
2016-02-28 14:30;2,6
2016-02-28 14:45;4,15
2016-02-28 15:00;4,85
2016-02-28 15:15;6,05
2016-02-28 15:30;5,3
2016-02-28 15:45;3,85
2016-02-28 16:00;4,9
2016-02-28 16:15;4,6
2016-02-28 16:30;4,05
2016-02-28 16:45;3,25
2016-02-28 17:00;1,9
2016-02-28 17:15;1,9
2016-02-28 17:30;1,05
2016-02-28 17:45;1,25
2016-02-28 18:00;0,7
2016-02-28 18:15;1,1
2016-02-28 18:30;3,6
2016-02-28 18:45;6,3
2016-02-28 19:00;8,35
2016-02-28 19:15;10,55
2016-02-28 19:30;9,1
2016-02-28 19:45;7,65
2016-02-28 20:00;5,35
2016-02-28 20:15;6,3
2016-02-28 20:30;6,1
2016-02-28 20:45;6,35
2016-02-28 21:00;6,35
2016-02-28 21:15;7,8
2016-02-28 21:30;8,7
2016-02-28 21:45;8,1
2016-02-28 22:00;9,4
2016-02-28 22:15;8,85
2016-02-28 22:30;10,65
2016-02-28 22:45;13
2016-02-28 23:00;16,1
2016-02-28 23:15;24,6
2016-02-28 23:30;22,8
2016-02-28 23:45;26,4

